Weather History for LIMH - July, 2013

Change the Weather History Date:

Sunday, July 14, 2013

  Actual Average Record
Temperature  
Mean Temperature 37 °F -  
Max Temperature 41 °F 38 °F 50 °F (2007)
Min Temperature 33 °F 29 °F 17 °F (2008)
Degree Days  
Heating Degree Days 28    
Moisture  
Dew Point 24 °F    
Average Humidity 58    
Maximum Humidity 93    
Minimum Humidity 20    
Precipitation  
Precipitation 0.00 in - - ()
Sea Level Pressure  
Sea Level Pressure 30.52 in    
Wind  
Wind Speed 8 mph ()    
Max Wind Speed 27 mph    
Max Gust Speed -    
Visibility 9.5 miles    
Events      
Averages and records for this station are not official NWS values.
T = Trace of Precipitation, MM = Missing Value Source: Averaged Metar Reports

Daily Weather History Graph

Daily Weather History Graph

Search for Another Location

Airport or City:

Trip Planner

Search our weather history database for the weather conditions in past years. The results will help you decide how hot, cold, wet, or windy it might be!

Date:

Astronomy

Jul. 14, 2013 Rise Set
Actual Time 5:52 AM CEST 9:17 PM CEST
Civil Twilight 5:15 AM CEST 9:54 PM CEST
Nautical Twilight 4:26 AM CEST 10:42 PM CEST
Astronomical Twilight 3:24 AM CEST 11:44 PM CEST
Moon 12:15 PM CEST (7/14) 11:56 PM CEST (7/14)
Length of Visible Light 16h 38m
Length of Day
15h 24m
Waxing Crescent, 32% of the Moon is Illuminated
Jul 14
Waxing Crescent
Jul 16
First Quarter
Jul 22
Full
Jul 29
Last Quarter
Aug 6
New

Hourly Weather History & Observations

Time (CEST) Temp. Windchill Dew Point Humidity Pressure Visibility Wind Dir Wind Speed Gust Speed Precip Events Conditions
12:00 AM 34 °F - 31 °F 85%  in 7 mi ENE 8.1 mph - -  
12:55 AM 33.8 °F 29.6 °F 30.2 °F 87% 30.51 in - South 4.6 mph - N/A   Clear
1:00 AM 34 °F - 30 °F 80%  in 7 mi South 4.6 mph - -  
1:55 AM 33.8 °F 29.6 °F 30.2 °F 87% 30.51 in - SSW 4.6 mph - N/A   Clear
2:00 AM 35 °F - 31 °F 78%  in 7 mi SSW 8.9 mph - -   Partly Cloudy
2:55 AM 33.8 °F 29.6 °F 28.4 °F 81% 30.51 in - SSW 4.6 mph - N/A   Clear
3:00 AM 35 °F - 29 °F 70%  in 7 mi SSW 4.6 mph - -  
3:55 AM 33.8 °F 30.8 °F 28.4 °F 81% 30.48 in - ESE 3.5 mph - N/A   Clear
4:00 AM 35 °F - 29 °F 71%  in 7 mi ESE 6.7 mph - -  
4:55 AM 33.8 °F 28.6 °F 21.2 °F 60% 30.48 in - NE 5.8 mph - N/A   Clear
5:00 AM 34 °F - 22 °F 48%  in 7 mi NE 11.2 mph - -  
5:55 AM 33.8 °F 26.4 °F 21.2 °F 60% 30.48 in - NNE 9.2 mph - N/A   Clear
6:00 AM 34 °F - 21 °F 46%  in 9 mi NNE 9.2 mph - -  
6:55 AM 33.8 °F 25.3 °F 21.2 °F 60% 30.48 in - NE 11.5 mph - N/A   Clear
7:00 AM 34 °F - 21 °F 46%  in 31 mi NE 22.4 mph - -   Partly Cloudy
7:55 AM 33.8 °F 24.3 °F 23.0 °F 65% 30.48 in - NE 13.8 mph - N/A   Clear
8:00 AM 34 °F - 24 °F 54%  in 44 mi NE 26.8 mph - -  
8:55 AM 33.8 °F 26.4 °F 23.0 °F 65% 30.48 in - NE 9.2 mph - N/A   Clear
9:00 AM 34 °F - 24 °F 55%  in 31 mi NE 17.9 mph - -  
9:55 AM 35.6 °F 28.0 °F 14.0 °F 41% 30.48 in 6.2 mi ENE 10.4 mph - N/A   Partly Cloudy
10:00 AM 35 °F - 14 °F 28%  in 16 mi ENE 10.4 mph - -   Scattered Clouds
10:55 AM 37.4 °F 32.1 °F 10.4 °F 33% 30.51 in 6.2 mi NE 6.9 mph - N/A   Partly Cloudy
11:00 AM 37 °F - 10 °F 20%  in 16 mi NE 13.4 mph - -   Scattered Clouds
11:55 AM 35.6 °F 29.2 °F 15.8 °F 44% 30.51 in 6.2 mi ENE 8.1 mph - N/A   Partly Cloudy
12:00 PM 36 °F - 16 °F 30%  in 16 mi ENE 15.7 mph - -   Scattered Clouds
12:55 PM 37.4 °F 32.1 °F 15.8 °F 41% 30.54 in 6.2 mi ENE 6.9 mph - N/A   Partly Cloudy
1:00 PM 37 °F - 16 °F 29%  in 16 mi ENE 13.4 mph - -   Scattered Clouds
1:55 PM 39.2 °F 35.0 °F 17.6 °F 42% 30.54 in 6.2 mi NE 5.8 mph - N/A   Partly Cloudy
2:00 PM 39 °F - 17 °F 28%  in 16 mi NE 11.2 mph - -   Scattered Clouds
2:55 PM 39.2 °F 34.2 °F 19.4 °F 45% 30.54 in 6.2 mi East 6.9 mph - N/A   Partly Cloudy
3:00 PM 39 °F - 19 °F 30%  in 16 mi East 13.4 mph - -   Scattered Clouds
3:55 PM 39.2 °F 35.9 °F 19.4 °F 45% 30.54 in 6.2 mi North 4.6 mph - N/A   Partly Cloudy
4:00 PM 40 °F - 19 °F 30%  in 14 mi North 4.6 mph - -   Scattered Clouds
4:55 PM 39.2 °F 35.0 °F 28.4 °F 65% 30.54 in 6.2 mi NNE 5.8 mph - N/A   Partly Cloudy
5:00 PM 40 °F - 28 °F 51%  in 12 mi NNE 11.2 mph - -   Scattered Clouds
5:55 PM 41.0 °F 38.0 °F 33.8 °F 76% 30.54 in 6.2 mi NNW 4.6 mph - N/A   Partly Cloudy
6:00 PM 41 °F - 33 °F 66%  in 12 mi NNW 4.6 mph - -   Scattered Clouds
6:55 PM 39.2 °F - 26.6 °F 61% 30.54 in 6.2 mi Calm Calm - N/A   Partly Cloudy
7:00 PM 40 °F - 27 °F 48%  in 12 mi Calm Calm - -   Scattered Clouds
7:55 PM 39.2 °F 34.2 °F 28.4 °F 65% 30.54 in 6.2 mi NE 6.9 mph - N/A   Partly Cloudy
8:00 PM 38 °F - 29 °F 60%  in 16 mi NE 6.9 mph - -   Scattered Clouds
8:55 PM 39.2 °F 33.6 °F 28.4 °F 65% 30.54 in 6.2 mi NE 8.1 mph - N/A   Partly Cloudy
9:00 PM 38 °F - 29 °F 60%  in 16 mi NE 15.7 mph - -   Scattered Clouds
9:55 PM 37.4 °F 30.3 °F 32.0 °F 81% 30.54 in 6.2 mi ENE 10.4 mph - N/A   Partly Cloudy
10:00 PM 37 °F - 31 °F 73%  in 7 mi ENE 20.1 mph - -   Scattered Clouds
10:55 PM 37.4 °F 32.1 °F 33.8 °F 87% 30.57 in - NE 6.9 mph - N/A   Clear
11:00 PM 37 °F - 33 °F 82%  in 7 mi NE 6.9 mph - -  
11:55 PM 35.6 °F 29.9 °F 33.8 °F 93% 30.57 in - ENE 6.9 mph - N/A   Clear